Date String (YYYY-MM-DD hh:mm:ss) UTC,Instrument flags,Ambient pressure (hPa),Sample flow (lpm),Bypass flow (lpm),Sample temperature (°C),Ambient temperature (°C),ASC tube jacket temperature (°C),LED temperature (°C),Box temperature (°C),Sample RH (%),Span deviation,Mass concentration (μg/m³),Mass concentration (μg/m³),Mass concentration (μg/m³)
DateTimeUTC,F1_M11,P_M11,Q1_M11,Q2_M11,T1_M11,T2_M11,T3_M11,T4_M11,T5_M11,U1_M11,ZSPAN_M11,X0_M11,X2_M11,X1_M11
2021-09-19 08:00:00,,0825.2,5.00,0.00,29.6,26.6,00.0,38.8,31.0,19.7,0000.0,0002.35,0001.03,0000.51
2021-09-19 08:01:00,,0825.2,5.01,0.00,29.5,27.0,00.0,38.7,31.0,19.7,0000.0,0002.06,0000.94,0000.50
2021-09-19 08:02:00,,0825.2,5.00,0.00,29.5,27.3,00.0,38.7,31.1,19.6,0000.0,0001.88,0000.89,0000.49
2021-09-19 08:03:00,,0825.2,4.99,0.00,29.5,27.6,00.0,38.7,31.1,19.6,0000.0,0001.85,0000.87,0000.48
2021-09-19 08:04:00,,0825.2,5.01,0.00,29.5,27.9,00.0,38.7,31.2,19.7,0000.0,0001.62,0000.77,0000.47
2021-09-19 08:05:00,,0825.2,4.98,0.00,29.6,28.0,00.0,38.7,31.2,19.7,0000.0,0001.49,0000.75,0000.46
2021-09-19 08:06:00,,0825.1,5.01,0.00,29.6,28.2,00.0,38.7,31.3,19.6,0000.0,0001.82,0000.72,0000.45
2021-09-19 08:07:00,,0825.2,4.99,0.00,29.6,28.3,00.0,38.7,31.3,19.5,0000.0,0002.07,0000.73,0000.45
2021-09-19 08:08:00,,0825.2,5.01,0.00,29.6,28.4,00.0,38.7,31.3,19.4,0000.0,0002.05,0000.72,0000.44
2021-09-19 08:09:00,,0825.1,5.00,0.00,29.6,28.5,00.0,38.7,31.4,19.3,0000.0,0002.08,0000.73,0000.45
2021-09-19 08:10:00,,0825.2,5.00,0.00,29.7,28.6,00.0,38.7,31.4,19.3,0000.0,0002.02,0000.72,0000.44
2021-09-19 08:11:00,,0825.2,5.00,0.00,29.7,28.7,00.0,38.7,31.4,19.3,0000.0,0001.84,0000.68,0000.44
2021-09-19 08:12:00,,0825.2,5.01,0.00,29.7,28.7,00.0,38.7,31.5,19.3,0000.0,0001.73,0000.64,0000.43
2021-09-19 08:13:00,,0825.2,4.99,0.00,29.8,28.8,00.0,38.8,31.5,19.3,0000.0,0001.68,0000.61,0000.44
2021-09-19 08:14:00,,0825.2,5.00,0.00,29.8,28.9,00.0,38.8,31.6,19.3,0000.0,0001.72,0000.62,0000.43
2021-09-19 08:15:00,,0825.2,5.00,0.00,29.9,28.9,00.0,38.8,31.6,19.3,0000.0,0001.69,0000.60,0000.43
2021-09-19 08:16:00,,0825.3,5.00,0.00,29.9,28.4,00.0,38.8,31.5,19.3,0000.0,0001.69,0000.60,0000.44
2021-09-19 08:17:00,,0825.3,5.00,0.00,29.7,26.6,00.0,38.8,31.1,19.3,0000.0,0001.29,0000.60,0000.44
2021-09-19 08:18:00,,0825.3,5.00,0.00,29.6,26.5,00.0,38.8,31.0,19.5,0000.0,0000.91,0000.59,0000.43
2021-09-19 08:19:00,,0825.3,5.00,0.00,29.6,26.8,00.0,38.8,31.0,19.5,0000.0,0000.88,0000.56,0000.43
2021-09-19 08:20:00,,0825.3,5.00,0.00,29.5,27.2,00.0,38.7,31.1,19.5,0000.0,0000.82,0000.55,0000.42
2021-09-19 08:21:00,,0825.4,4.99,0.00,29.5,27.5,00.0,38.7,31.1,19.5,0000.0,0000.97,0000.52,0000.42
2021-09-19 08:22:00,,0825.4,4.99,0.00,29.5,27.8,00.0,38.7,31.2,19.5,0000.0,0001.27,0000.53,0000.43
2021-09-19 08:23:00,,0825.4,5.01,0.00,29.6,28.0,00.0,38.7,31.3,19.4,0000.0,0001.33,0000.55,0000.43
2021-09-19 08:24:00,,0825.4,5.01,0.00,29.6,28.2,00.0,38.7,31.3,19.4,0000.0,0001.44,0000.58,0000.43
2021-09-19 08:25:00,,0825.4,4.99,0.00,29.6,28.4,00.0,38.7,31.4,19.5,0000.0,0001.54,0000.60,0000.44
2021-09-19 08:26:00,,0825.4,5.00,0.00,29.7,28.5,00.0,38.7,31.4,19.4,0000.0,0001.63,0000.65,0000.46
2021-09-19 08:27:00,,0825.4,5.01,0.00,29.7,28.6,00.0,38.7,31.4,19.4,0000.0,0001.63,0000.66,0000.45
2021-09-19 08:28:00,,0825.4,4.99,0.00,29.7,28.7,00.0,38.7,31.5,19.4,0000.0,0001.66,0000.67,0000.46
2021-09-19 08:29:00,,0825.3,5.00,0.00,29.8,28.8,00.0,38.7,31.5,19.3,0000.0,0001.64,0000.67,0000.46
2021-09-19 08:30:00,,0825.3,5.01,0.00,29.8,28.9,00.0,38.8,31.6,19.3,0000.0,0001.62,0000.67,0000.47
2021-09-19 08:31:00,,0825.4,4.99,0.00,29.8,28.9,00.0,38.8,31.6,19.2,0000.0,0001.61,0000.66,0000.46
2021-09-19 08:32:00,,0825.4,5.00,0.00,29.9,29.0,00.0,38.8,31.7,19.2,0000.0,0001.39,0000.66,0000.46
2021-09-19 08:33:00,,0825.4,5.00,0.00,29.9,28.6,00.0,38.8,31.6,19.2,0000.0,0001.09,0000.66,0000.45
2021-09-19 08:34:00,,0825.4,4.98,0.00,29.7,26.4,00.0,38.8,31.0,19.3,0000.0,0001.08,0000.65,0000.45
2021-09-19 08:35:00,,0825.3,5.02,0.00,29.5,25.4,00.0,38.7,30.6,19.5,0000.0,0000.99,0000.63,0000.45
2021-09-19 08:36:00,,0825.3,4.99,0.00,29.4,25.7,00.0,38.7,30.7,19.6,0000.0,0000.83,0000.60,0000.44
2021-09-19 08:37:00,,0825.4,5.01,0.00,29.3,26.2,00.0,38.6,30.8,19.7,0000.0,0000.74,0000.56,0000.43
2021-09-19 08:38:00,,0825.3,4.99,0.00,29.3,26.7,00.0,38.6,30.9,19.7,0000.0,0000.76,0000.55,0000.42
2021-09-19 08:39:00,,0825.4,5.00,0.00,29.3,27.1,00.0,38.6,30.9,19.7,0000.0,0000.90,0000.54,0000.43
2021-09-19 08:40:00,,0825.4,5.01,0.00,29.3,27.4,00.0,38.5,31.0,19.7,0000.0,0001.13,0000.53,0000.42
2021-09-19 08:41:00,,0825.4,5.00,0.00,29.4,27.7,00.0,38.5,31.0,19.7,0000.0,0001.44,0000.54,0000.42
2021-09-19 08:42:00,,0825.4,4.99,0.00,29.4,27.9,00.0,38.5,31.1,19.9,0000.0,0002.41,0000.56,0000.43
2021-09-19 08:43:00,,0825.4,5.01,0.00,29.4,28.1,00.0,38.5,31.2,20.0,0000.0,0002.39,0000.56,0000.45
2021-09-19 08:44:00,,0825.4,4.99,0.00,29.5,28.3,00.0,38.5,31.2,20.0,0000.0,0002.50,0000.59,0000.45
2021-09-19 08:45:00,,0825.4,5.01,0.00,29.5,28.4,00.0,38.5,31.3,19.9,0000.0,0002.51,0000.60,0000.47
2021-09-19 08:46:00,,0825.5,5.00,0.00,29.5,28.5,00.0,38.6,31.3,20.0,0000.0,0002.52,0000.61,0000.48
2021-09-19 08:47:00,,0825.5,4.99,0.00,29.6,28.6,00.0,38.6,31.4,20.0,0000.0,0002.57,0000.63,0000.50
2021-09-19 08:48:00,,0825.4,5.01,0.00,29.6,28.6,00.0,38.6,31.4,20.0,0000.0,0002.64,0000.67,0000.52
2021-09-19 08:49:00,,0825.4,5.00,0.00,29.6,28.7,00.0,38.6,31.4,19.9,0000.0,0002.65,0000.69,0000.55
2021-09-19 08:50:00,,0825.4,4.99,0.00,29.7,28.8,00.0,38.6,31.5,19.9,0000.0,0002.72,0000.71,0000.57
2021-09-19 08:51:00,,0825.4,5.01,0.00,29.7,28.8,00.0,38.7,31.5,19.9,0000.0,0002.93,0000.75,0000.59
2021-09-19 08:52:00,,0825.4,4.99,0.00,29.7,28.9,00.0,38.7,31.6,19.9,0000.0,0002.92,0000.77,0000.59
2021-09-19 08:53:00,,0825.5,5.01,0.00,29.8,28.9,00.0,38.7,31.6,19.9,0000.0,0001.88,0000.78,0000.60
2021-09-19 08:54:00,,0825.4,5.01,0.00,29.8,29.0,00.0,38.7,31.6,19.9,0000.0,0001.74,0000.79,0000.61
2021-09-19 08:55:00,,0825.5,4.98,0.00,29.8,29.0,00.0,38.7,31.7,19.9,0000.0,0001.71,0000.80,0000.63
2021-09-19 08:56:00,,0825.5,4.99,0.00,29.9,29.0,00.0,38.8,31.7,19.8,0000.0,0002.01,0000.81,0000.63
2021-09-19 08:57:00,,0825.4,5.02,0.00,29.8,27.5,00.0,38.8,31.3,19.8,0000.0,0002.13,0000.82,0000.64
2021-09-19 08:58:00,,0825.4,5.00,0.00,29.7,26.4,00.0,38.8,31.0,20.0,0000.0,0002.26,0000.84,0000.64
2021-09-19 08:59:00,,0825.4,5.00,0.00,29.6,26.5,00.0,38.7,31.0,20.1,0000.0,0002.46,0000.88,0000.64
